Theta_e
320 320 321 321 322 324 324 325 321 319 319 311 312 315 314 318 319 319 319 319 320 319 318 318 318 317 318 319 319 318 318 319 318 317 318 326 329 327 337 329 323 338 344 344 345 344 343 341 341 343 344 344 344 345 344 344 342 341 340 339 337 336 339 340 340 340 340 340 340 339 338 339 338 339 340 338 339 338 338 339 339 339 339 338 338 336 331 328 326 322 320 320 320 321 322 327 332
321 322 322 322 323 325 326 325 319 314 314 309 312 315 314 319 318 319 318 319 320 318 318 317 319 318 318 318 319 319 318 318 318 319 320 326 328 328 331 326 328 340 343 344 345 344 345 343 340 342 343 343 344 344 344 344 343 342 340 340 338 336 338 339 339 340 340 340 340 338 337 338 337 338 339 338 338 338 338 338 339 338 339 338 337 334 328 325 325 322 317 314 316 318 319 319 324
319 321 322 323 324 325 325 323 317 310 310 309 311 316 317 318 317 318 318 318 318 317 318 318 318 318 319 319 319 319 318 319 318 320 322 324 329 331 328 324 328 339 344 343 345 344 345 344 340 342 343 343 343 344 344 344 343 342 340 340 338 336 338 339 339 339 339 339 338 337 337 337 337 337 338 337 338 338 338 338 338 338 338 337 335 332 328 327 327 321 315 310 311 315 319 316 315
320 322 321 323 325 324 324 322 317 312 309 309 310 315 318 317 316 317 317 318 317 317 318 318 319 318 319 319 318 319 319 319 319 320 324 327 328 331 328 323 327 338 344 343 344 343 345 344 340 342 343 343 343 344 344 343 343 342 341 340 338 337 338 339 339 339 339 338 338 337 337 337 337 337 337 337 337 338 337 337 338 338 336 334 333 331 330 328 325 320 317 311 310 315 317 312 306
322 324 321 323 327 323 323 321 318 314 311 311 311 315 318 316 317 317 317 318 317 318 318 319 319 318 319 318 319 319 318 318 321 321 325 329 325 326 326 323 331 338 342 344 344 343 345 345 341 342 343 343 343 344 344 343 343 342 341 340 339 337 337 338 339 339 338 337 337 337 337 337 337 337 337 337 337 337 336 338 337 336 335 334 333 331 329 326 322 320 319 313 307 309 308 304 301
323 324 322 323 325 322 321 316 314 314 315 317 314 315 317 316 317 316 317 318 318 318 317 318 318 318 318 317 319 318 318 318 321 322 326 328 321 325 330 330 336 338 341 345 344 342 345 345 343 341 343 343 343 344 344 343 342 342 341 340 340 337 336 337 338 338 337 336 335 335 337 336 335 335 336 336 336 336 336 338 336 334 332 332 332 330 328 325 323 320 318 314 305 300 300 299 299
321 322 324 324 323 323 321 314 313 315 317 320 316 316 317 316 317 317 317 317 317 317 316 317 317 318 317 316 318 318 320 319 321 326 329 329 323 326 333 336 338 338 341 344 343 343 344 345 344 342 343 343 344 344 343 343 343 342 342 340 340 338 336 336 337 336 335 334 332 332 336 336 335 335 335 335 335 335 336 337 335 332 330 330 331 329 327 325 322 320 317 314 305 298 298 299 299
321 322 324 325 323 323 319 315 317 318 317 318 318 317 317 317 317 317 317 317 317 316 316 317 317 317 316 317 318 319 321 322 325 329 332 329 325 327 332 338 339 338 341 343 343 343 343 344 343 343 342 343 344 344 343 343 343 342 341 341 340 339 336 335 337 336 333 332 331 333 337 337 336 335 334 335 335 335 336 336 334 331 331 331 330 329 327 325 322 320 317 313 306 299 298 298 298
323 322 323 324 322 319 317 315 318 319 318 318 317 317 317 317 317 317 317 316 316 316 316 316 317 316 315 317 318 319 320 324 328 329 331 327 325 330 331 336 340 340 341 343 343 341 343 342 342 343 342 343 343 343 343 342 342 342 341 341 340 339 337 335 336 336 332 332 334 337 338 338 337 335 334 334 334 335 335 334 333 331 332 333 331 329 327 327 323 320 316 313 306 299 298 298 298
321 321 322 324 319 315 313 314 317 319 319 318 318 317 316 316 317 317 317 317 316 316 316 315 317 316 315 317 317 318 317 320 324 325 330 327 324 330 329 330 336 340 341 342 342 341 341 340 341 343 343 342 342 342 343 342 342 342 341 341 340 339 338 335 336 336 333 333 337 338 338 338 339 337 335 335 334 335 334 333 333 331 332 333 331 329 328 327 323 320 316 311 307 300 298 299 299
320 319 321 321 314 311 311 313 317 319 319 317 317 317 316 316 316 316 317 317 317 316 316 316 317 316 315 317 317 317 315 316 321 323 329 331 326 326 328 327 331 336 339 340 341 340 340 339 341 343 343 342 342 342 343 343 342 342 341 341 340 339 338 336 336 335 333 334 337 339 339 338 338 338 336 335 335 335 334 333 332 331 331 331 331 330 329 327 323 320 316 311 307 301 298 298 299
320 318 318 317 313 313 313 314 317 319 319 318 317 316 316 315 316 316 317 316 316 316 316 316 316 316 316 317 317 316 314 313 319 323 328 332 330 326 328 328 328 332 335 337 338 339 339 339 340 342 342 341 341 341 342 342 342 342 341 340 340 339 339 337 336 335 333 334 337 339 339 339 338 338 336 335 335 334 334 333 332 332 332 331 330 330 329 327 322 320 318 312 307 302 299 298 298
320 318 317 315 316 317 315 315 317 319 318 318 317 315 315 315 316 316 317 316 316 316 316 315 315 316 316 316 317 316 314 312 316 323 328 331 332 332 332 330 329 332 333 335 337 337 337 338 339 341 341 340 340 340 340 341 342 342 341 341 340 339 339 338 337 335 333 332 336 338 338 338 339 337 337 336 335 334 334 333 332 332 331 331 330 330 329 327 322 320 320 317 309 302 298 298 298
321 318 318 317 317 317 316 316 317 316 316 318 317 315 316 315 316 315 316 317 316 316 315 315 315 315 316 315 316 315 313 312 314 321 329 331 331 333 332 330 329 332 333 334 336 336 336 337 338 340 340 340 340 340 339 340 340 341 342 341 340 340 339 339 338 336 333 332 334 337 337 338 339 338 338 337 335 335 334 332 332 331 331 331 330 330 329 328 324 320 320 320 315 305 298 298 298
321 318 319 317 315 315 316 318 317 315 316 318 316 316 316 315 315 315 316 316 315 316 314 315 315 315 316 315 316 315 312 312 313 320 328 330 331 331 330 330 330 330 332 334 335 335 335 336 337 338 339 340 340 340 340 340 339 339 341 341 340 340 339 339 338 336 333 331 333 335 336 337 338 337 338 337 336 335 334 333 332 331 331 330 330 329 328 328 325 321 320 321 319 312 302 297 298
320 319 319 316 313 313 314 317 317 315 317 317 316 316 317 315 315 315 315 314 315 316 315 315 314 315 315 314 314 312 312 312 313 319 326 328 330 329 327 329 329 329 331 332 334 334 335 335 336 337 338 339 340 340 340 340 339 338 339 339 340 340 340 340 338 337 335 332 332 333 334 336 336 337 337 337 336 335 334 333 332 331 331 330 329 328 328 328 325 321 320 320 320 318 309 299 297
319 320 318 314 312 313 314 317 316 316 317 317 316 316 317 317 315 315 314 314 315 316 315 315 314 314 313 313 312 312 312 313 314 318 321 322 325 325 322 322 324 325 326 328 330 331 332 334 335 336 337 337 338 339 340 340 340 339 338 338 339 339 339 339 339 338 336 334 332 332 332 334 335 336 336 336 335 335 333 332 332 331 331 330 329 328 328 327 325 321 319 319 319 320 315 305 299
321 321 316 312 314 314 315 318 317 318 318 317 316 316 316 317 316 315 314 315 315 315 315 314 313 313 313 313 312 312 313 313 315 316 317 318 319 320 319 319 319 319 320 321 322 322 326 331 334 334 335 336 337 338 339 340 340 339 339 338 338 338 338 338 338 338 337 336 334 333 332 334 336 336 336 336 335 335 333 332 331 331 331 330 329 328 328 327 325 322 320 320 319 318 317 313 306
320 318 315 314 316 315 315 317 318 318 318 317 316 315 315 316 316 315 315 316 316 316 316 314 313 314 314 313 312 313 313 314 315 316 317 317 317 317 318 318 318 318 318 318 319 318 319 324 329 333 335 335 336 337 338 339 339 339 339 339 339 338 338 337 337 337 336 336 335 334 334 336 336 336 336 335 335 335 333 332 331 330 330 329 329 329 328 326 324 322 321 321 319 318 318 316 311
318 318 317 316 316 314 315 316 317 317 316 316 316 315 314 315 315 315 315 315 316 316 315 314 314 314 313 313 313 313 313 314 315 315 316 317 317 317 317 317 317 317 317 318 319 319 319 319 322 328 333 334 335 336 337 337 338 339 339 339 340 339 338 338 337 337 336 336 336 335 336 337 336 336 336 335 334 335 333 332 331 330 329 329 330 329 328 326 325 323 322 322 321 319 319 317 314
318 317 317 316 315 315 315 315 316 316 315 316 316 315 315 315 314 314 315 316 317 315 313 313 313 313 312 312 312 313 313 314 314 315 316 316 316 316 316 316 316 317 317 318 319 320 319 318 318 321 329 333 334 336 335 336 337 337 338 338 339 339 338 338 338 337 337 337 336 336 337 337 337 336 335 335 334 334 333 332 331 331 330 330 330 329 329 328 326 325 324 323 321 320 320 319 317
317 316 316 315 315 316 316 315 316 315 315 315 315 315 315 315 314 314 315 315 316 314 311 311 311 311 311 311 312 313 313 314 314 314 315 315 315 316 315 315 315 316 317 318 319 319 318 318 318 317 323 331 333 335 335 335 336 336 337 337 337 338 338 338 338 338 337 337 337 336 336 336 337 336 335 335 334 334 333 332 331 331 331 330 329 329 329 328 327 326 324 323 321 320 320 318 317
317 316 315 316 315 316 316 315 315 314 314 314 315 315 314 314 315 315 314 314 314 311 311 310 310 310 310 311 312 312 312 313 314 314 314 314 314 314 314 314 314 315 316 318 317 317 317 318 318 315 319 328 332 334 335 335 336 336 336 337 337 337 338 337 337 338 338 338 337 336 336 336 336 336 336 335 334 334 333 333 332 332 331 331 329 329 329 328 327 325 324 322 321 320 319 318 317
317 317 316 316 316 315 316 315 314 314 314 314 314 314 313 314 315 314 313 312 311 309 310 310 310 310 311 311 311 311 312 312 313 313 313 313 313 313 313 313 314 315 316 317 316 317 317 317 318 315 316 326 331 332 334 335 335 336 336 336 336 336 337 337 336 337 337 337 337 336 336 336 335 335 336 335 334 334 333 333 333 332 331 331 330 329 328 328 326 325 324 322 321 321 320 318 318
317 317 316 315 315 315 315 315 314 314 314 314 313 313 314 315 314 313 312 311 310 310 310 310 310 310 310 310 310 311 312 311 312 312 313 312 313 313 312 313 314 316 316 316 316 316 317 318 319 318 317 325 331 331 333 334 335 336 336 335 335 335 335 336 335 335 335 334 335 336 335 335 335 334 334 334 335 334 333 333 332 332 331 330 329 328 328 326 324 324 324 323 322 321 320 319 318
316 316 316 315 315 315 315 314 314 314 314 313 313 314 315 313 313 312 311 310 310 309 309 310 310 310 309 309 309 311 311 311 311 312 312 312 312 312 312 313 314 315 315 315 316 316 318 319 320 320 321 327 330 330 332 334 335 335 335 335 334 334 334 334 333 333 332 332 334 334 334 334 334 334 333 333 334 333 333 332 332 332 330 330 329 328 327 325 324 324 324 322 321 321 319 318 318
315 315 315 315 315 315 315 315 315 315 314 313 313 315 315 312 312 313 310 309 310 309 310 309 310 310 309 309 309 310 311 310 310 311 312 312 311 311 312 312 312 314 315 315 315 316 319 320 321 321 324 328 329 330 332 333 334 333 333 333 333 333 333 332 331 331 331 332 332 332 332 332 332 333 333 332 333 332 332 331 331 331 330 329 328 327 326 324 324 324 323 322 321 320 319 318 318
314 314 315 315 316 315 315 316 315 315 314 313 313 315 314 311 312 313 310 309 310 310 310 309 310 310 309 308 308 309 310 310 310 311 310 310 310 309 310 309 310 313 314 314 314 318 320 321 323 323 325 328 330 331 332 333 332 331 330 331 331 330 330 330 330 330 330 331 331 331 331 330 331 332 332 332 332 332 331 330 330 330 329 328 327 326 325 324 324 323 322 321 320 320 319 318 318
314 314 316 317 317 317 316 316 314 314 313 312 313 314 313 312 313 312 309 309 311 311 310 310 310 309 309 308 308 309 309 309 309 310 309 308 308 308 308 308 308 311 312 312 314 318 320 321 323 325 327 328 329 330 330 330 330 329 328 328 328 328 329 328 328 329 329 329 329 329 328 328 329 330 331 331 330 331 331 330 329 328 328 327 326 325 324 323 323 322 322 321 320 320 319 318 317
314 315 316 317 318 318 316 314 313 313 312 311 313 314 315 315 313 311 309 309 311 311 311 310 310 309 308 308 308 308 308 309 309 308 307 307 307 307 307 307 307 309 311 311 314 317 319 321 323 324 326 327 327 327 326 326 326 326 326 326 326 326 326 326 325 325 326 326 326 327 327 326 327 327 328 328 328 329 328 327 327 326 326 325 325 324 324 323 321 321 321 320 320 319 319 318 317
316 317 316 317 317 316 315 314 314 314 311 311 313 314 315 315 313 311 310 310 311 312 312 311 310 309 308 308 308 308 308 308 307 307 307 306 306 305 305 306 307 309 311 311 313 315 317 320 322 322 323 324 325 325 324 323 323 323 323 323 324 324 324 323 322 322 322 323 323 323 324 325 325 325 324 325 325 325 325 324 323 323 323 323 323 323 323 322 321 320 319 319 319 319 318 317 316
317 316 316 318 317 316 316 314 314 315 312 311 313 314 316 315 312 312 310 310 311 312 313 311 310 309 308 308 308 308 308 308 307 306 306 306 305 304 304 305 307 309 310 311 312 313 315 317 320 321 321 322 323 323 323 322 321 321 321 321 322 321 321 321 320 320 321 321 321 321 322 324 324 323 322 322 323 323 323 323 321 320 320 320 321 322 322 321 320 320 319 319 318 316 315 314 313
319 317 316 318 318 318 317 314 313 315 314 313 314 315 317 315 312 311 310 310 311 312 313 311 310 309 308 308 307 307 308 308 307 306 305 304 304 303 304 305 306 308 309 310 311 312 314 316 319 320 321 321 321 322 321 321 320 320 320 320 320 320 320 320 320 320 320 320 320 320 320 322 322 322 322 321 322 321 320 320 319 318 319 319 320 319 319 319 317 317 316 316 315 311 310 310 309
318 318 317 317 318 317 316 314 314 313 314 315 315 315 317 316 313 311 310 311 311 312 312 310 309 309 308 308 307 307 307 307 306 305 304 303 303 302 303 304 305 307 308 309 310 311 312 314 316 317 319 320 319 320 320 319 319 319 319 318 318 318 317 316 316 317 317 316 317 316 317 318 318 319 319 318 319 318 317 317 315 315 315 315 315 315 314 314 313 312 311 311 310 308 306 306 307
317 318 318 317 317 316 316 316 315 314 314 316 316 316 317 316 314 311 311 310 311 313 312 310 309 308 308 307 307 307 307 306 305 304 304 303 303 302 303 304 305 306 307 309 310 310 310 310 312 313 315 316 316 317 318 317 316 316 316 315 315 313 313 312 312 312 311 311 312 312 312 313 313 313 313 314 314 313 312 312 311 312 313 312 311 311 310 310 309 308 308 307 306 305 304 304 304
318 318 317 317 316 316 318 317 314 314 316 316 317 317 317 317 315 312 311 310 311 312 310 309 309 307 307 307 307 307 306 305 304 303 303 303 302 302 303 303 304 306 307 307 309 310 309 308 309 309 310 311 312 312 312 313 313 312 312 311 310 308 308 308 308 307 307 307 308 309 309 309 309 309 309 309 309 309 308 308 308 308 309 308 308 307 307 306 306 305 305 305 305 303 301 301 302
318 318 317 317 316 316 318 317 313 314 315 317 317 317 317 318 317 315 311 310 311 311 310 310 309 308 307 307 307 307 306 305 304 303 303 303 302 302 302 302 303 305 306 306 308 308 308 308 307 307 307 308 308 307 307 308 308 307 306 305 303 302 303 303 303 303 303 303 304 305 306 306 306 306 306 305 305 305 305 305 305 304 304 304 303 303 303 303 304 304 304 303 303 302 300 300 300
317 317 316 317 317 317 319 317 313 313 315 316 317 317 317 317 317 316 311 311 312 311 311 310 309 308 307 307 307 306 305 305 304 303 303 303 303 302 302 301 302 303 304 305 306 307 307 307 307 306 305 305 305 304 303 303 303 302 301 300 299 299 299 299 299 300 300 300 301 301 301 301 302 302 302 301 301 301 301 301 300 299 298 298 298 298 298 300 301 302 304 303 303 301 299 297 296
317 317 317 317 317 318 318 316 313 312 314 317 317 317 317 317 317 316 312 312 312 311 311 310 309 308 307 307 306 306 305 305 304 303 303 304 303 302 301 301 301 302 303 304 305 305 306 306 305 305 304 304 303 302 301 301 300 301 300 299 299 299 298 298 298 298 298 299 299 299 299 299 299 299 299 299 298 297 296 296 295 294 294 293 293 293 293 295 296 298 300 301 301 299 298 296 293
317 317 317 317 318 318 318 315 314 313 314 316 317 317 317 318 318 315 311 311 310 308 308 308 308 307 307 306 305 305 305 305 304 303 303 303 303 302 301 301 301 301 302 302 303 303 304 303 303 303 303 302 302 302 302 301 301 301 300 299 298 297 296 296 296 296 296 296 296 296 296 296 296 295 295 295 294 294 293 292 291 291 291 292 291 290 290 291 292 293 295 296 297 296 296 296 295
318 318 317 317 318 318 318 317 315 314 315 314 315 318 318 319 320 316 310 308 308 306 306 306 306 306 305 305 304 304 305 305 304 303 303 303 303 301 300 300 300 300 300 300 301 301 301 301 302 302 301 301 301 302 302 302 301 300 298 297 296 296 295 294 294 293 292 292 291 291 291 291 291 291 290 290 290 290 289 289 289 290 290 291 291 290 289 288 289 289 290 292 294 295 294 294 295
317 318 318 317 318 318 318 318 317 318 319 316 316 321 321 319 321 319 312 308 308 306 305 306 305 304 303 303 304 303 303 303 303 303 302 302 302 301 300 300 299 299 298 299 299 300 300 300 300 301 300 300 299 299 299 300 299 298 297 296 296 295 294 293 292 291 290 289 288 288 288 288 288 288 288 288 288 288 288 288 288 288 288 288 288 288 287 287 287 288 288 288 290 292 293 292 293
318 319 318 317 318 319 319 319 319 321 322 316 314 321 323 319 319 318 313 310 310 307 306 306 305 304 303 303 304 303 302 302 301 302 302 302 302 301 300 299 299 298 297 297 298 298 299 299 300 300 300 299 298 298 298 298 298 297 296 295 294 293 292 292 291 290 289 288 287 287 287 287 287 287 287 287 287 287 287 287 287 287 287 287 287 287 287 286 287 287 287 287 287 288 291 292 292
320 320 319 318 318 319 320 320 319 320 321 317 314 318 322 321 320 318 314 313 312 309 307 307 306 304 303 304 303 303 302 302 301 301 301 301 301 300 299 298 297 297 297 297 297 297 298 298 299 299 299 298 297 297 297 296 296 295 294 293 293 292 291 291 290 290 290 289 288 287 286 286 286 286 286 286 287 287 287 287 287 287 287 286 286 286 286 286 286 286 286 286 287 287 289 290 291
320 318 317 318 318 319 319 320 320 319 320 320 318 318 321 322 320 317 315 315 315 313 310 308 306 305 304 303 303 302 302 301 301 301 300 300 299 298 297 297 296 296 296 296 296 297 297 297 298 298 297 297 296 296 296 295 295 293 292 292 291 291 291 290 290 290 290 289 289 288 286 286 286 286 286 286 286 286 286 286 286 286 286 286 286 286 286 286 286 286 286 286 287 287 288 288 289
317 315 316 317 317 318 318 319 319 318 319 321 321 319 321 323 319 317 316 316 317 316 312 309 307 306 304 303 302 302 301 301 301 300 300 299 297 296 296 296 295 295 295 295 296 296 296 296 296 296 296 295 295 295 295 294 293 292 292 291 291 291 291 291 290 290 290 289 289 288 287 286 285 285 286 286 286 286 286 286 286 286 286 286 286 286 286 286 285 285 285 285 286 287 287 287 287
315 316 317 317 317 316 317 317 317 320 321 322 321 319 321 322 320 319 319 317 317 317 313 311 308 306 304 303 302 301 301 300 299 299 298 297 296 295 295 295 295 295 294 295 295 295 295 295 295 295 294 294 294 294 294 293 292 292 292 292 292 292 291 291 291 290 290 289 289 289 288 287 286 285 285 286 286 286 286 286 286 286 286 286 286 285 285 285 285 285 285 285 285 285 286 287 286
316 317 318 319 319 317 317 318 317 321 325 321 318 319 321 322 321 318 317 315 315 315 313 311 308 306 304 303 302 301 301 300 299 298 297 296 296 295 295 295 295 294 294 295 295 295 295 295 294 294 293 293 293 293 292 292 291 291 292 292 292 292 291 291 291 291 290 290 290 289 289 287 286 285 285 285 285 285 285 285 285 285 285 285 285 285 285 285 285 285 285 285 285 284 285 285 285
316 318 318 321 323 321 322 322 320 323 323 316 314 317 320 321 319 317 316 313 312 313 312 311 308 306 304 303 302 301 301 300 299 298 297 297 296 296 295 295 294 294 295 295 295 295 294 294 294 294 293 292 292 292 291 291 290 290 290 291 291 291 291 291 291 290 290 290 289 289 288 287 286 285 285 285 285 285 285 285 285 285 285 285 285 285 285 285 284 284 284 284 284 284 284 284 284
315 318 319 323 326 326 326 325 323 324 320 313 313 316 318 319 318 317 314 311 309 308 309 310 308 306 304 303 302 301 300 300 299 298 297 297 297 296 295 295 295 295 294 294 294 294 294 294 293 293 292 291 291 291 290 290 289 290 289 289 289 289 289 289 289 289 288 288 287 287 286 286 285 285 285 285 285 284 284 284 284 284 284 284 284 284 284 284 284 284 284 284 284 283 284 284 283
315 318 319 322 325 327 327 325 324 324 318 313 314 317 319 319 316 312 309 306 306 305 306 308 308 306 304 303 302 301 300 300 299 298 298 298 297 296 295 295 295 294 294 294 294 294 294 293 293 292 291 291 291 290 290 289 289 289 288 288 288 288 288 287 287 287 286 286 286 286 285 285 285 284 284 284 284 284 284 284 284 284 284 284 284 284 284 284 284 283 283 283 283 283 283 283 283
316 317 318 321 322 321 321 319 318 318 318 316 315 317 318 317 312 308 306 306 305 304 305 306 306 305 303 302 302 301 300 300 299 298 298 297 296 296 295 295 294 294 294 294 294 294 294 293 292 292 291 291 290 290 289 289 288 288 288 288 287 287 287 287 287 286 286 286 286 286 285 285 284 284 284 284 284 284 284 284 284 283 283 283 283 283 283 283 283 283 283 283 283 283 283 283 282
317 317 318 318 317 317 318 317 314 314 319 321 317 317 317 316 313 309 307 307 306 305 305 305 305 304 303 303 302 302 301 300 299 298 298 297 296 295 295 294 294 293 293 294 294 294 293 292 292 292 291 291 290 289 289 288 288 288 287 287 287 287 287 286 286 286 286 286 286 285 285 285 284 284 284 284 284 284 284 284 283 283 283 283 283 283 283 283 283 283 283 283 282 282 282 282 282
316 317 317 315 315 316 317 320 319 318 322 322 319 319 319 319 318 312 308 309 308 306 305 305 305 304 303 303 303 302 301 300 299 298 298 297 295 295 294 294 294 293 293 293 293 293 293 292 292 291 291 290 289 289 288 287 287 287 287 287 287 287 287 287 286 286 286 286 286 285 285 285 285 284 284 284 284 284 284 283 283 283 283 283 283 283 283 283 283 282 282 282 282 282 282 282 282
313 315 316 316 318 319 318 320 322 323 324 323 321 319 319 320 319 314 312 312 310 307 306 305 305 304 303 304 303 302 301 300 299 298 297 296 295 294 294 294 293 293 293 293 293 293 292 292 292 291 290 290 289 288 288 287 287 287 287 287 287 287 287 287 287 286 286 286 286 285 285 285 284 284 284 284 284 284 284 284 283 283 283 283 283 283 283 283 282 282 282 282 282 282 282 282 281
311 313 315 315 317 319 318 319 320 322 324 324 322 320 319 319 319 317 316 314 311 309 306 306 305 304 304 304 303 302 301 300 299 298 297 297 296 294 294 293 293 293 292 292 292 292 292 292 291 291 290 289 288 288 288 288 288 287 287 287 287 287 287 287 287 286 286 286 285 285 285 285 284 284 284 284 284 284 283 283 283 283 282 282 282 282 282 282 282 282 282 282 282 282 282 281 281
311 313 316 315 315 315 316 318 318 319 321 323 324 322 320 317 316 316 316 315 313 310 307 307 306 305 304 304 304 303 302 301 300 298 298 297 295 294 293 293 293 292 292 292 292 292 292 292 291 291 290 289 288 288 288 288 287 287 287 287 287 287 287 287 286 286 286 285 285 285 285 285 284 284 284 284 284 283 283 283 282 282 282 282 282 282 282 282 281 281 281 281 281 281 281 280 280
314 314 316 316 316 316 318 320 318 316 318 321 321 323 321 314 311 312 312 312 313 311 309 308 307 306 305 304 304 303 302 301 300 299 298 297 295 294 293 293 292 292 292 292 292 292 292 292 291 291 290 289 289 288 288 287 287 287 287 287 287 287 287 286 286 286 285 285 285 285 284 284 284 284 283 283 283 283 282 282 282 281 281 281 281 281 281 281 281 280 280 280 280 280 280 280 280
Wind_Speed
9 8 7 7 5 6 5 3 2 2 1 4 3 2 5 4 1 2 4 3 2 6 6 4 4 4 5 5 6 6 6 9 8 5 5 4 3 5 5 2 3 9 11 14 11 15 17 16 16 13 12 11 11 10 10 9 9 9 8 9 8 10 10 9 9 9 9 9 9 9 9 9 9 9 9 9 9 8 9 10 10 10 11 11 11 11 11 11 11 10 10 10 9 8 6 5 4
9 7 7 6 4 5 1 1 2 2 2 4 3 3 5 2 1 3 6 5 5 6 3 3 3 2 4 5 5 2 5 9 9 6 7 5 7 9 2 3 5 8 11 14 12 15 16 15 17 14 12 12 11 11 10 9 8 8 7 8 7 9 10 9 9 8 9 8 8 9 9 9 9 9 9 9 8 8 8 9 9 10 10 11 11 10 11 11 10 10 11 11 9 7 7 6 4
8 7 6 5 4 4 1 2 3 2 2 4 4 4 2 2 4 6 7 6 6 4 2 1 1 1 5 4 2 2 6 8 8 5 6 7 4 9 4 4 5 7 9 13 12 14 15 14 17 15 13 12 11 11 10 9 8 7 7 7 6 8 9 8 8 8 8 8 8 8 8 8 8 8 8 8 7 7 8 8 9 10 10 10 9 9 13 13 11 12 14 14 10 7 6 6 5
7 6 5 5 3 3 3 3 2 2 1 3 4 4 2 4 6 5 6 6 4 2 2 2 1 2 4 2 3 1 6 7 10 7 4 9 6 9 4 4 4 6 9 12 12 12 14 15 17 16 14 13 12 12 11 9 8 6 6 6 6 7 8 8 8 8 7 7 7 7 7 8 7 8 8 7 7 7 7 9 9 10 11 10 9 11 13 12 12 14 15 16 13 9 7 6 6
7 5 5 5 3 1 2 2 1 2 3 3 4 5 4 5 6 5 6 5 4 2 3 4 1 3 1 5 4 3 6 3 9 12 6 6 8 9 2 3 3 4 8 11 11 11 13 14 16 17 15 14 13 12 11 9 8 7 6 6 5 6 8 8 8 7 7 6 7 7 7 7 7 7 7 7 6 6 8 9 10 11 11 10 10 11 12 12 14 15 15 16 14 11 9 8 7
6 5 3 4 2 1 3 2 1 2 5 5 5 7 5 6 5 4 6 6 4 3 3 4 3 1 2 5 6 7 8 5 4 10 9 7 9 6 4 3 3 3 8 11 10 9 11 12 14 17 15 14 13 12 11 9 8 8 6 6 5 5 7 9 8 7 7 6 7 7 7 7 7 7 7 7 6 7 8 9 10 10 9 10 10 11 13 14 14 15 15 15 14 12 10 9 8
5 3 2 3 1 1 4 1 1 4 5 6 5 7 6 6 3 2 5 5 4 3 2 3 3 3 2 4 5 9 11 9 4 7 8 8 7 4 6 4 3 5 7 9 9 8 9 10 13 16 15 14 13 13 11 9 9 8 7 6 6 6 6 9 8 8 7 6 7 8 8 7 7 7 7 7 7 7 7 8 8 7 8 9 11 12 14 14 14 14 15 14 13 12 11 10 8
4 3 1 2 2 2 3 2 3 3 4 4 6 6 6 5 2 1 3 3 3 3 2 3 3 3 4 2 3 9 13 12 7 8 8 7 4 6 7 5 4 6 7 8 9 8 8 8 12 16 15 14 13 13 11 10 10 9 7 6 7 6 5 8 9 8 7 6 8 8 8 8 8 7 7 7 6 7 7 7 7 7 8 9 11 13 13 14 15 15 15 14 13 12 11 10 9
3 2 1 2 2 2 1 2 3 4 5 4 5 6 5 4 1 1 2 4 3 3 4 4 5 4 4 4 6 8 11 11 8 11 11 8 5 6 6 6 6 6 6 6 8 7 6 7 12 17 15 14 14 13 11 11 10 9 8 7 7 6 6 7 8 8 7 8 8 8 8 9 9 8 8 7 7 7 7 7 6 7 9 9 10 12 13 15 15 15 15 14 12 11 11 11 10
3 1 2 3 1 2 2 2 3 4 5 4 5 6 4 2 1 1 1 4 3 1 5 3 4 4 1 4 7 6 8 9 8 12 12 11 7 5 5 7 8 6 5 6 7 7 6 8 14 18 15 15 14 12 12 12 11 10 9 8 8 7 6 6 7 8 8 9 8 7 8 9 9 8 8 8 8 8 7 7 6 8 9 9 9 11 13 15 15 15 15 14 12 11 10 10 10
2 1 1 3 2 3 2 3 4 4 5 5 5 6 3 2 1 1 1 2 2 1 5 2 3 5 2 4 6 6 10 13 13 12 10 10 7 4 4 6 7 6 5 5 6 6 5 6 14 19 15 15 14 13 12 12 11 10 9 9 8 7 5 5 6 8 9 10 8 6 7 8 9 8 7 8 9 8 7 7 7 7 8 8 9 11 13 15 14 14 15 15 12 10 9 10 9
2 1 2 3 2 1 1 2 4 5 6 5 5 5 2 1 2 2 1 1 2 2 5 5 4 5 5 4 5 8 13 17 14 11 8 7 7 5 3 3 5 5 4 5 5 5 4 4 12 18 16 16 15 14 13 12 12 11 10 10 9 7 5 4 5 8 10 11 8 5 6 7 8 8 8 8 9 8 8 7 7 5 5 6 8 10 12 15 14 13 15 16 13 10 9 9 9
2 1 3 3 1 1 1 2 4 5 5 4 5 5 0 2 1 1 2 1 0 2 5 6 4 4 5 2 6 8 12 16 12 10 7 6 5 6 4 2 3 4 3 4 4 3 4 4 7 13 15 16 15 15 15 13 12 12 11 11 10 8 6 5 5 7 11 12 9 6 5 6 7 8 9 9 9 8 8 8 6 5 5 6 7 9 11 14 13 13 15 16 15 11 9 9 9
2 1 3 1 1 1 1 1 4 4 4 6 4 4 2 0 2 3 4 3 2 4 4 3 4 4 4 1 5 5 9 14 12 8 6 5 4 5 4 3 3 3 3 4 4 3 4 5 6 9 12 14 13 14 15 15 13 13 12 12 11 9 7 7 5 6 9 12 11 8 5 6 7 7 8 10 10 9 8 8 6 4 4 5 6 8 11 13 13 13 15 16 16 13 10 9 9
3 0 3 1 2 2 2 1 3 5 4 8 3 2 3 2 2 2 3 4 4 5 1 1 2 4 2 2 1 4 11 14 12 7 3 3 4 5 6 5 4 4 3 4 4 3 4 5 6 8 10 11 12 12 13 14 15 14 13 12 12 11 9 7 6 6 8 11 12 10 7 5 7 8 9 10 10 10 8 7 5 3 2 3 4 7 9 12 14 12 13 15 16 14 11 9 9
3 1 3 2 2 3 3 2 3 5 4 7 3 1 3 4 2 2 3 4 3 2 2 0 1 3 5 4 5 7 12 13 10 6 2 1 3 4 6 6 5 6 5 4 3 2 3 4 5 6 8 10 11 12 12 12 15 15 15 14 12 12 11 9 7 6 7 10 12 12 9 6 6 8 9 9 10 11 9 6 4 2 1 2 3 6 7 11 13 11 11 13 15 15 11 9 8
2 2 3 3 3 2 4 4 3 2 6 7 4 0 3 4 4 1 1 3 5 2 1 4 5 5 7 5 6 8 10 11 9 5 2 1 2 3 5 5 4 5 5 4 3 1 1 3 4 5 7 9 10 12 12 12 13 14 15 15 13 12 11 10 9 8 7 8 11 12 11 8 6 7 8 8 9 11 10 7 5 4 3 2 3 5 7 10 12 11 10 11 12 13 12 10 9
2 2 3 2 1 2 2 2 2 3 5 6 3 2 4 1 2 1 2 5 5 5 2 7 9 9 9 8 7 8 9 10 10 7 6 5 3 3 4 5 4 4 4 4 3 2 1 1 4 6 7 8 9 11 11 11 12 12 13 14 14 13 12 11 10 10 9 9 10 11 10 8 8 7 8 8 8 10 10 8 6 5 4 2 3 4 6 9 10 11 10 10 10 11 13 13 10
2 2 3 0 3 3 2 2 4 2 3 4 3 1 3 3 2 1 4 3 4 6 4 9 8 9 8 9 9 9 10 10 11 9 9 8 7 6 5 5 5 5 5 4 4 4 2 1 2 5 7 7 8 10 10 9 10 10 11 13 13 13 12 11 11 10 10 10 10 10 9 8 9 8 8 8 6 8 11 8 7 6 5 3 1 2 6 8 9 10 10 10 10 11 12 12 11
1 2 3 3 4 4 3 2 4 3 2 1 2 2 3 2 2 2 4 7 7 3 3 4 4 5 6 8 9 9 9 10 11 10 10 10 9 8 7 7 6 6 7 6 4 5 4 2 3 5 6 8 8 9 10 9 9 9 9 11 11 12 13 12 11 11 11 11 10 10 8 8 9 8 9 8 6 8 11 9 7 5 5 4 2 2 5 6 8 10 11 12 11 10 10 10 10
1 2 2 5 3 3 4 3 3 3 2 2 1 0 4 1 1 4 4 8 5 4 7 4 3 6 6 7 7 7 8 9 10 10 10 10 10 9 8 7 7 7 7 6 5 6 6 4 4 5 5 8 9 9 9 9 9 9 9 10 11 11 13 12 10 11 11 10 11 11 9 9 9 8 9 8 7 9 11 11 10 7 6 6 2 2 2 4 6 8 10 10 8 8 9 10 9
1 0 3 5 1 1 5 3 3 2 1 2 3 3 2 0 4 5 5 7 1 5 6 4 4 5 5 6 6 6 7 8 9 10 10 10 11 10 9 8 8 8 8 7 7 8 7 6 5 7 8 7 9 9 8 8 8 9 9 9 9 9 10 10 9 10 10 9 11 12 12 11 9 9 9 7 7 8 9 11 13 11 9 7 3 2 1 3 4 6 6 6 6 8 9 9 8
2 2 3 2 1 0 4 4 3 2 3 4 4 2 2 4 6 3 3 3 4 5 4 5 4 4 4 4 5 6 7 8 10 10 10 10 11 11 10 10 9 9 9 9 9 9 8 7 7 6 10 8 9 10 8 8 7 7 7 7 9 8 8 8 8 8 8 8 10 10 10 10 9 8 9 9 8 9 9 9 12 12 10 7 4 3 2 3 4 6 5 5 6 7 8 8 7
4 1 4 2 1 2 1 3 4 4 5 4 2 2 5 8 5 2 2 3 6 5 5 5 5 4 3 4 5 6 7 8 9 9 9 9 10 10 10 9 9 9 9 10 10 8 9 8 8 5 8 9 8 10 9 8 7 7 6 6 7 6 6 6 7 5 4 6 7 7 7 8 9 9 9 9 8 9 9 8 9 9 9 7 5 3 3 4 4 5 4 4 5 6 7 6 6
4 2 3 3 2 4 2 3 5 6 6 4 3 5 8 7 3 3 4 5 5 5 5 4 4 4 4 5 6 6 7 7 8 8 8 7 8 9 9 9 9 9 10 11 10 8 9 9 8 5 5 8 8 9 9 8 7 7 6 4 5 5 4 4 5 4 4 4 3 5 7 7 7 8 9 8 7 8 8 7 7 8 8 6 4 3 4 5 5 4 3 3 4 5 5 5 4
1 2 1 2 3 4 4 5 7 7 5 4 6 9 8 4 2 3 4 5 5 5 4 4 3 3 4 5 6 6 6 7 7 8 7 7 7 9 10 10 10 10 10 10 10 9 9 8 6 2 4 7 8 9 9 8 7 7 8 7 6 7 7 7 7 5 4 4 2 3 6 7 6 6 5 5 6 6 6 5 5 6 6 5 4 3 4 5 6 5 3 3 4 4 4 5 4
2 3 3 6 6 5 6 7 7 5 5 7 8 9 4 5 4 4 5 6 6 6 5 4 3 3 5 4 5 5 6 6 6 6 7 8 8 10 11 11 11 11 10 11 11 10 8 7 5 3 3 7 8 10 11 10 9 9 9 8 7 8 8 6 5 4 4 4 3 1 2 4 6 7 5 4 4 5 5 6 6 7 6 6 7 5 6 7 5 4 3 3 4 4 4 4 4
2 3 6 8 8 8 9 9 6 4 4 6 8 7 3 6 5 3 7 8 7 6 5 4 3 3 4 4 4 4 5 6 6 7 8 9 9 10 10 11 11 11 11 12 12 10 7 6 5 4 6 8 9 11 12 11 11 11 11 10 10 10 10 9 8 7 5 4 3 2 1 2 4 6 8 6 5 6 8 9 9 9 8 8 8 7 9 8 6 4 3 2 4 3 2 3 3
2 3 7 7 8 10 9 6 4 4 3 4 6 5 6 9 6 6 8 7 7 6 5 5 3 3 3 3 3 4 5 6 7 8 8 8 7 8 9 10 11 10 11 11 12 10 7 6 6 8 7 8 10 12 13 15 14 15 16 14 14 14 13 13 13 12 9 7 5 3 2 2 2 2 5 6 7 9 9 9 9 9 8 7 8 8 8 7 6 5 3 2 3 2 1 2 3
3 5 5 6 9 7 5 4 4 5 3 5 5 4 5 10 8 8 7 8 8 7 5 5 4 3 3 3 3 3 4 4 6 7 6 7 7 8 9 10 10 10 10 11 11 11 8 8 10 12 10 11 14 15 17 20 19 18 20 19 17 17 16 15 15 14 13 11 10 7 5 4 4 4 2 3 6 8 8 7 7 7 5 6 8 10 9 8 7 6 3 1 1 1 1 2 3
4 4 4 5 7 2 7 5 5 5 3 6 6 5 2 9 9 7 6 8 8 7 6 5 3 4 3 3 3 3 4 4 5 6 6 7 7 8 9 10 9 9 10 11 11 11 12 14 16 18 18 18 19 19 20 23 22 21 22 20 18 18 17 17 16 15 15 14 14 12 11 10 10 10 9 9 9 10 9 9 10 10 9 8 9 10 9 8 7 5 4 2 1 1 1 2 3
5 4 5 5 4 3 7 5 4 3 3 7 7 5 2 8 9 7 6 7 8 6 5 5 4 4 3 3 3 3 4 4 5 6 7 7 8 8 9 9 9 9 10 12 10 11 16 18 20 22 22 23 22 22 22 22 23 23 22 21 20 20 18 17 17 15 15 15 14 14 13 12 13 14 14 14 14 14 13 13 14 13 13 11 10 9 7 6 5 3 3 3 2 2 2 3 4
5 5 6 5 4 4 4 4 3 2 3 7 8 6 2 7 9 7 6 7 8 6 5 5 4 4 3 3 2 2 3 4 4 6 7 7 8 8 8 8 7 8 10 12 12 14 17 18 20 23 24 25 24 24 23 23 25 24 23 23 22 22 20 20 19 17 16 16 17 17 16 15 14 14 15 16 16 16 16 15 15 14 13 12 11 10 9 8 7 6 4 3 3 4 5 6 6
5 5 5 6 7 7 3 3 4 4 4 6 8 9 8 4 11 9 7 7 7 7 6 6 5 4 3 3 2 2 3 3 3 5 7 6 7 7 8 8 7 9 10 12 14 17 19 20 21 23 24 25 26 26 25 26 27 27 27 27 27 26 26 25 25 23 22 21 22 22 21 20 18 17 17 18 18 18 18 17 16 15 14 14 13 13 13 12 11 10 9 8 8 9 8 9 9
6 4 4 6 6 7 7 2 5 6 5 6 7 9 11 6 10 10 8 8 8 6 6 5 5 5 4 3 3 2 2 3 4 5 5 5 5 6 6 7 8 9 10 12 14 18 22 23 24 26 28 28 29 29 29 30 30 30 30 31 31 30 30 29 28 28 27 26 25 24 24 24 23 22 21 21 21 22 21 20 19 17 16 16 16 16 15 15 14 13 12 11 11 12 12 10 12
8 5 6 8 6 7 7 1 6 4 4 7 9 10 12 10 8 10 9 7 7 6 5 5 5 5 4 4 3 3 3 3 4 4 4 4 5 5 5 6 7 9 11 12 14 19 21 23 25 27 29 30 31 32 31 32 33 32 31 31 31 31 29 29 28 27 27 26 24 23 23 24 23 23 22 22 21 22 22 21 19 18 16 15 15 16 16 14 14 12 12 12 10 12 16 15 15
6 6 7 9 8 8 8 2 6 2 3 7 10 11 13 13 9 9 10 7 8 8 7 7 6 6 5 5 5 4 4 3 3 3 3 4 4 5 5 5 7 9 11 12 14 17 19 20 22 23 23 24 25 26 26 26 27 28 28 28 28 27 27 26 26 25 25 24 23 22 22 21 20 21 21 21 21 20 20 19 19 20 19 18 18 18 16 14 13 10 9 11 11 13 17 19 19
7 8 8 9 7 9 8 2 5 3 3 7 10 12 12 13 12 7 11 9 9 10 9 9 8 7 5 5 6 5 4 4 4 4 3 4 4 5 4 5 6 8 10 12 14 16 18 19 19 17 16 17 18 19 19 20 21 23 25 25 25 26 26 25 25 25 25 25 25 24 24 23 22 22 22 22 23 23 22 22 23 23 22 22 23 22 20 18 16 12 10 10 11 12 15 20 24
8 7 7 8 6 8 7 3 5 3 2 5 7 10 11 12 13 7 11 9 7 7 6 7 7 7 6 6 6 5 5 5 5 5 4 5 5 4 4 5 6 7 9 12 13 14 16 16 15 14 15 15 15 17 20 23 23 24 26 26 26 28 27 27 27 26 26 26 26 26 25 25 25 25 25 25 26 26 25 26 26 26 25 25 25 25 24 22 20 18 15 12 10 11 13 19 26
8 7 7 7 6 7 6 3 4 4 4 5 6 9 10 13 12 7 7 5 5 4 3 3 4 5 5 5 5 5 6 6 5 5 5 6 5 5 5 5 6 7 9 10 10 11 12 12 13 15 16 17 19 21 23 25 26 27 29 29 29 30 28 28 29 28 28 28 28 27 27 27 27 27 27 27 28 28 27 27 26 25 24 21 21 23 24 24 23 21 19 17 14 12 12 15 20
9 10 8 8 8 8 7 2 0 4 7 5 6 9 9 11 13 8 5 3 4 5 5 5 4 4 3 3 3 3 4 5 6 6 6 6 6 5 5 5 6 7 8 8 8 8 10 12 14 16 18 20 22 23 25 27 28 29 29 26 25 24 22 22 23 24 26 28 29 29 29 29 29 29 29 29 28 28 27 27 26 24 23 20 19 21 23 24 24 23 22 21 18 15 13 13 14
8 11 12 11 11 9 9 5 3 6 6 4 4 7 5 4 9 8 6 5 6 7 7 8 7 6 4 4 5 4 3 3 4 5 5 6 6 6 6 5 5 6 7 7 7 8 10 13 16 18 20 21 21 19 19 23 24 22 18 16 16 16 16 16 17 18 21 25 28 28 28 28 28 28 28 28 27 27 26 26 26 25 24 23 21 22 22 23 23 23 22 21 20 16 13 13 14
7 4 8 11 11 9 9 6 2 5 5 2 3 6 5 2 4 6 8 7 8 8 8 9 8 7 7 6 6 6 6 5 4 5 6 6 6 7 6 6 5 6 6 6 8 9 11 14 17 19 20 20 19 16 13 13 15 14 15 16 16 16 17 16 15 17 19 23 26 27 27 27 27 27 26 26 25 25 24 24 24 23 23 23 22 22 22 22 21 20 20 20 19 18 14 12 13
4 2 2 5 7 8 8 7 6 6 5 2 5 6 7 7 5 6 8 8 9 10 10 10 9 9 9 8 7 8 7 7 7 6 7 7 7 7 7 6 6 6 6 6 8 9 11 14 16 18 19 18 18 16 14 13 16 20 22 22 20 18 19 18 17 17 19 21 23 24 25 26 25 25 24 24 23 23 23 22 22 22 22 21 21 21 21 20 20 19 19 19 18 18 17 13 11
2 3 2 1 2 5 6 6 6 5 5 5 7 6 6 8 4 5 6 6 9 10 11 12 12 11 11 10 9 9 8 8 8 7 8 8 7 6 7 7 6 6 6 7 8 9 12 14 15 17 17 16 17 17 19 20 23 26 26 25 23 20 20 19 17 17 17 19 19 20 23 24 23 23 23 22 22 22 22 21 21 21 21 21 20 20 20 19 19 19 19 19 18 16 16 15 12
3 5 5 5 2 1 3 5 5 4 6 8 8 8 6 7 4 6 4 5 9 9 9 11 12 12 11 10 10 9 8 7 7 8 8 8 7 7 7 7 7 7 7 8 9 10 12 13 14 16 16 17 18 20 23 25 26 27 25 24 23 20 18 17 17 16 16 18 18 18 20 21 22 22 21 21 21 20 20 20 20 20 20 20 19 19 19 19 19 19 18 19 18 16 15 15 14
7 7 5 4 3 2 2 4 3 5 8 9 10 13 10 6 4 6 3 1 3 6 8 10 12 12 11 10 10 9 9 8 7 8 9 8 8 7 7 8 8 7 7 8 9 10 11 12 14 17 17 17 20 22 25 26 25 25 23 21 21 19 17 17 16 16 15 16 16 16 16 19 20 20 20 19 19 19 19 19 18 19 18 18 18 18 18 18 18 18 17 17 18 17 15 13 14
6 5 4 4 3 3 3 4 4 7 9 4 3 8 11 8 4 2 3 3 4 4 7 12 13 13 11 10 9 9 9 8 8 7 8 9 8 8 8 8 9 8 8 8 9 10 11 12 16 18 18 19 22 23 25 26 25 24 22 21 20 18 17 16 16 15 14 14 14 13 14 16 18 19 18 18 18 17 17 17 17 17 17 17 17 17 17 17 16 16 16 17 17 16 15 13 14
5 5 6 5 4 4 5 5 6 7 5 1 2 1 6 8 8 5 3 6 4 3 3 10 14 13 11 10 9 9 8 9 9 7 8 9 9 9 9 9 10 9 9 9 10 11 11 13 16 19 19 20 23 24 25 26 26 25 24 22 21 19 19 18 16 15 14 14 14 14 14 15 16 17 17 17 16 16 16 16 16 16 16 16 15 15 15 15 15 15 15 15 15 15 15 13 13
8 8 7 7 6 6 7 6 7 6 2 2 1 3 4 6 7 6 2 7 5 5 4 7 12 13 12 11 10 9 9 9 8 8 8 8 10 10 10 10 10 9 10 10 10 11 12 13 16 19 20 20 22 24 24 25 25 24 24 23 22 22 21 20 19 18 17 17 17 17 16 16 16 16 15 15 15 14 15 14 15 15 14 15 14 14 14 14 14 14 14 14 14 14 14 13 12
9 8 7 8 7 6 7 6 6 4 2 2 2 3 4 4 2 1 4 6 4 4 5 6 10 11 11 11 10 10 10 9 8 8 9 10 12 11 11 11 10 10 11 11 10 11 12 13 16 20 22 20 21 23 24 25 24 24 23 23 22 22 22 22 21 21 20 19 18 18 17 16 15 15 14 14 13 13 13 13 14 14 13 14 14 14 14 14 14 14 13 14 14 14 15 14 13
7 6 6 8 6 4 3 1 1 1 1 3 4 3 4 2 3 4 4 4 4 5 5 7 10 11 11 10 10 10 10 9 9 9 9 11 13 13 12 11 11 11 11 11 11 12 13 14 16 19 20 19 20 21 23 24 24 23 23 23 22 22 22 22 21 21 20 19 17 17 16 15 14 13 12 12 12 12 12 12 12 13 13 13 13 14 14 13 14 14 13 14 15 15 15 15 13
6 6 6 4 1 1 1 1 2 0 5 4 6 5 4 2 3 5 6 5 5 5 5 8 9 11 11 9 9 10 10 10 10 9 10 12 14 13 13 12 12 13 13 12 12 12 14 16 17 17 17 18 19 21 23 24 24 23 22 22 22 22 22 21 21 20 18 17 17 16 15 14 13 12 11 11 11 11 11 12 12 12 13 13 13 14 13 14 14 13 13 14 14 14 14 13 12
5 5 6 4 2 2 2 4 2 3 8 4 6 8 7 5 4 4 6 7 8 7 7 8 10 11 11 9 10 11 11 10 10 10 11 13 15 14 14 13 13 14 14 13 13 13 14 15 17 18 18 19 21 23 24 24 24 24 23 22 22 21 21 20 19 18 17 16 15 14 13 12 11 10 10 10 11 11 12 12 12 12 13 13 13 12 12 13 12 11 12 12 12 13 12 11 11
0 2 4 4 2 5 5 5 5 6 8 5 6 8 8 8 5 5 8 10 10 10 9 9 11 12 11 11 12 12 11 10 10 11 10 12 15 15 15 15 14 15 14 14 14 14 14 15 16 18 19 21 23 24 24 24 24 24 23 22 22 21 20 19 18 17 15 14 13 12 11 11 10 9 9 9 9 9 9 9 9 9 9 9 9 9 9 10 10 10 10 10 11 12 12 12 12
1 2 4 2 2 4 5 5 4 5 7 6 4 4 5 7 7 9 12 12 12 12 11 11 12 13 12 11 12 13 12 12 11 11 11 12 16 16 16 16 16 16 15 14 15 14 15 15 16 17 19 22 24 24 24 24 24 24 23 22 21 19 18 17 16 15 13 13 12 11 10 9 8 7 7 6 6 5 5 5 6 6 6 6 7 8 8 8 9 9 9 10 11 12 13 12 12
6 6 7 6 3 1 2 4 3 3 5 5 6 5 3 2 3 5 7 8 11 13 12 11 11 12 12 12 13 13 13 13 12 11 11 13 16 16 16 16 15 15 15 14 15 15 15 16 16 18 20 23 24 23 23 24 24 23 23 21 20 18 17 15 14 13 12 11 10 9 8 7 6 6 5 4 4 4 4 4 4 5 5 6 6 7 8 8 9 9 10 10 11 12 13 12 12
9 9 10 10 7 5 4 5 3 1 3 3 5 7 2 2 2 3 4 3 5 9 10 9 10 12 13 12 13 13 12 12 12 10 10 12 15 16 16 15 15 15 14 14 15 15 15 16 16 18 20 22 23 23 24 25 24 23 22 20 18 17 15 14 13 12 11 10 9 8 7 7 6 5 5 4 3 3 3 4 4 5 5 6 6 7 8 8 8 9 10 10 11 12 12 12 12
Wind_Direction
339 327 326 323 308 286 260 251 230 183 268 94 85 123 84 54 83 124 100 80 110 64 23 12 5 339 324 328 353 11 25 22 19 16 58 76 66 73 144 97 96 146 155 160 169 183 178 175 173 177 178 173 176 173 169 165 156 150 140 136 133 131 129 131 130 128 128 125 124 122 118 115 117 114 110 108 106 105 101 97 93 89 89 87 79 70 54 44 40 39 35 24 20 19 19 14 14
335 320 312 307 279 273 249 226 260 145 165 109 81 59 91 130 154 67 61 49 56 47 17 4 352 344 306 286 297 300 57 46 41 56 74 97 105 57 126 131 88 146 156 161 163 173 176 181 178 178 182 179 181 179 174 170 160 156 145 138 136 134 132 134 133 130 131 127 126 124 122 120 120 119 112 109 110 106 101 97 93 89 87 78 68 58 42 37 37 33 25 17 12 9 14 13 7
336 329 306 285 250 253 244 225 261 166 151 103 92 82 113 137 78 62 53 46 49 32 6 342 280 345 277 239 293 318 75 66 43 56 77 66 89 29 6 159 109 143 158 163 161 166 174 187 183 179 184 184 183 184 181 174 167 162 147 138 135 135 136 139 136 134 134 132 131 126 124 121 119 119 114 113 114 109 104 98 95 88 81 71 61 49 38 39 37 29 24 20 18 17 18 20 18
339 329 312 283 240 221 243 236 279 286 111 96 108 110 102 75 74 67 59 51 55 27 353 327 217 44 309 11 39 5 70 77 47 27 68 53 12 355 332 183 109 140 161 165 164 165 177 192 189 182 184 186 185 186 186 179 174 168 155 143 133 136 142 143 140 139 138 137 138 130 126 123 121 120 116 116 116 111 104 98 93 84 77 67 58 49 42 38 34 29 24 21 24 33 36 34 34
333 312 309 285 259 237 270 270 290 315 41 65 113 115 99 81 81 73 70 70 73 34 353 329 29 96 346 26 8 353 35 62 61 34 34 44 358 348 344 153 84 156 164 166 167 165 184 195 192 188 184 187 189 188 189 184 181 176 166 153 138 142 149 148 147 146 144 147 147 137 131 130 129 127 122 120 119 115 105 99 95 88 79 70 63 51 43 38 32 28 23 22 29 38 43 44 43
317 295 280 264 283 331 262 221 206 95 35 15 101 113 102 86 79 80 95 94 88 52 4 336 5 75 125 71 44 36 21 344 38 28 8 352 343 5 78 84 45 161 162 168 167 165 192 197 195 193 185 189 192 191 190 188 189 182 175 165 148 146 155 156 155 154 154 159 159 149 141 138 137 136 133 129 125 119 112 105 101 92 79 72 66 51 44 40 31 24 21 23 29 37 44 47 48
319 304 222 231 189 248 258 189 82 100 45 14 85 106 99 90 76 106 126 115 121 105 33 14 347 300 104 104 81 60 36 20 20 13 360 344 347 85 97 49 53 134 154 166 165 173 199 199 199 196 189 191 193 192 191 194 194 184 180 176 159 148 157 166 165 162 162 166 167 160 150 146 143 144 144 139 132 125 119 111 102 84 68 67 62 51 44 36 27 21 20 22 28 36 42 45 46
320 315 201 257 194 211 278 101 60 73 78 52 75 80 82 84 55 74 109 91 102 101 63 60 332 299 101 121 106 74 43 45 60 33 18 7 31 115 103 61 71 120 143 159 168 182 204 207 205 199 193 195 197 195 195 200 195 188 188 181 167 153 155 174 174 167 168 169 166 167 163 157 153 153 154 148 140 133 124 110 94 73 66 65 58 51 41 31 27 22 22 23 28 36 39 42 42
282 285 226 260 223 192 257 116 83 83 105 103 95 85 82 77 23 341 86 95 87 82 58 33 331 338 112 129 102 85 45 47 61 43 29 21 59 113 111 95 87 110 130 147 170 187 215 225 207 197 195 199 203 201 202 203 196 196 196 187 177 161 156 178 183 171 173 179 176 178 177 172 164 159 158 154 148 141 127 110 90 75 73 68 58 47 35 28 26 24 25 26 29 37 40 40 38
253 249 280 266 254 189 195 142 113 113 113 105 100 95 96 85 44 342 27 93 80 84 70 3 308 10 105 132 97 89 48 42 44 36 28 24 53 104 126 120 102 104 118 136 160 181 224 235 202 194 198 201 205 206 207 205 200 202 199 192 185 173 163 174 189 180 178 192 195 188 183 181 171 160 159 155 148 141 130 119 100 81 79 75 58 36 27 24 23 24 26 28 33 40 42 42 38
243 167 293 262 236 204 198 153 131 120 121 123 108 90 87 79 206 186 326 96 87 131 81 336 295 16 292 127 93 108 61 37 35 26 23 27 31 73 125 128 116 115 123 140 149 170 212 237 198 193 203 204 206 210 210 210 208 208 201 197 192 182 173 174 195 187 183 199 208 197 185 181 171 163 161 157 149 142 136 126 110 88 74 65 44 23 19 20 22 26 28 29 32 40 46 45 42
265 150 231 250 245 230 27 137 132 121 137 153 127 91 64 131 234 221 248 89 93 160 84 11 351 348 271 133 119 125 62 30 26 17 21 35 25 44 89 118 126 120 128 145 143 160 178 225 200 198 206 208 210 213 215 216 213 214 208 206 201 191 185 183 197 193 192 203 214 207 190 183 177 172 165 165 161 151 145 134 117 95 63 45 29 15 14 18 24 30 31 31 30 38 44 44 44
317 3 251 258 342 356 42 122 130 138 158 152 112 88 76 209 240 339 322 290 187 176 72 22 345 310 280 104 139 133 55 23 13 10 19 37 43 53 64 79 98 97 105 129 132 152 164 190 201 204 213 216 215 216 221 221 217 219 216 211 207 199 193 190 189 196 200 207 218 221 198 189 185 177 173 177 173 160 151 139 119 91 62 41 26 16 14 18 24 32 35 33 32 37 40 41 41
332 5 286 281 59 278 131 147 147 179 167 121 85 83 149 127 25 350 312 284 67 51 47 16 326 310 276 233 150 123 29 9 2 4 18 33 64 74 72 50 47 80 88 101 124 151 171 184 192 207 220 225 221 222 226 226 224 221 219 213 210 205 198 194 183 191 204 210 219 225 211 192 190 184 183 186 178 166 153 139 120 95 66 39 22 16 14 16 21 31 37 34 33 35 38 40 37
332 343 284 231 161 205 175 227 173 213 163 117 82 67 146 88 39 311 333 326 41 56 12 177 311 319 305 305 58 26 356 355 354 354 14 47 77 79 77 66 51 58 75 100 125 149 169 183 191 204 216 222 220 224 227 230 230 225 222 215 213 210 202 198 185 186 201 211 219 227 226 205 197 190 191 194 179 164 157 149 134 114 60 22 14 12 9 13 19 28 37 35 33 32 34 39 36
328 290 255 218 192 202 176 187 200 220 140 115 106 77 197 133 106 288 38 336 330 84 282 142 128 331 7 13 13 358 346 353 352 350 8 90 108 98 83 80 77 64 61 87 110 141 172 179 189 202 210 217 216 220 224 231 233 228 226 218 214 214 207 200 190 191 199 213 222 228 230 225 214 200 204 205 179 165 164 170 177 193 287 331 356 10 7 7 15 27 36 34 32 31 32 38 38
292 256 247 225 194 189 165 176 190 165 120 119 124 65 260 151 143 237 73 272 269 266 301 60 74 50 46 46 20 3 358 5 7 15 46 54 115 122 84 66 78 72 59 69 78 97 184 190 193 202 208 215 214 218 223 231 238 234 230 225 220 217 213 204 196 199 200 211 222 231 236 234 226 212 210 208 187 176 172 181 201 217 239 281 342 2 3 2 15 31 35 31 29 29 32 37 36
264 247 243 240 175 131 123 154 114 111 127 125 118 32 306 250 134 135 249 223 226 268 193 99 78 77 76 65 35 21 19 21 25 38 51 45 44 68 63 47 47 50 46 50 45 29 5 214 213 208 206 212 213 218 221 228 240 238 229 229 226 222 221 213 205 208 209 212 217 226 234 227 222 217 204 203 201 188 178 188 213 219 229 272 330 360 5 4 20 35 36 32 24 20 28 32 26
282 287 248 220 69 84 64 76 89 90 117 117 122 55 317 316 31 37 280 240 233 267 178 130 113 101 82 58 41 31 30 32 34 38 47 44 40 40 39 36 31 28 20 13 4 357 340 267 239 219 211 209 210 216 218 221 233 232 222 223 223 221 223 219 213 215 217 216 215 218 223 218 219 218 203 203 210 199 188 196 223 227 236 255 290 13 17 17 29 40 42 39 31 26 30 31 26
315 289 257 94 86 102 95 94 89 65 70 150 148 81 293 299 5 312 298 294 268 263 84 130 137 85 51 44 36 29 33 37 36 37 44 40 37 35 28 24 16 10 2 353 353 353 342 305 247 224 218 211 207 213 215 216 222 221 218 218 216 216 221 219 214 219 223 219 215 212 217 221 218 216 216 213 206 196 192 201 225 234 236 229 241 354 15 28 35 38 42 43 40 38 32 30 33
338 300 333 91 114 148 133 130 90 71 32 302 310 251 269 245 322 291 295 291 262 93 49 14 4 24 26 36 31 28 33 38 37 36 40 37 34 30 24 20 10 3 355 352 350 345 340 317 260 224 216 214 208 206 211 211 214 214 214 216 214 217 218 214 211 217 223 222 218 213 214 220 214 209 218 218 199 192 194 202 214 220 220 213 224 318 14 41 48 37 36 44 44 43 36 29 35
265 356 47 97 174 167 131 130 98 88 336 285 258 258 288 21 271 269 274 286 331 74 43 35 31 29 32 29 27 32 34 35 35 32 33 33 30 26 18 13 8 4 358 356 346 337 336 327 292 232 206 208 209 203 209 209 209 212 211 212 214 219 216 212 214 215 217 218 223 225 219 218 215 206 210 208 192 195 199 200 206 211 211 206 208 220 142 76 83 62 44 49 46 45 43 33 31
270 142 115 134 235 144 129 135 136 159 241 241 251 295 344 278 265 254 267 304 67 71 60 73 68 57 47 41 42 40 38 33 30 27 25 27 26 22 15 8 5 360 356 354 344 340 337 332 321 253 201 194 207 203 204 205 206 207 204 208 211 216 212 210 213 210 212 218 228 232 224 222 221 212 210 209 197 196 202 204 209 213 210 201 201 207 154 120 104 82 71 59 51 48 46 40 32
272 214 143 148 215 239 153 142 162 195 232 241 273 323 270 259 259 216 203 90 88 92 85 86 84 80 65 60 53 44 43 35 29 25 23 25 24 22 15 7 4 358 357 354 347 345 340 336 337 297 202 187 199 199 199 198 201 199 193 202 208 216 222 216 213 203 196 214 228 230 231 236 230 226 222 216 204 196 203 207 208 209 203 198 203 194 128 122 111 91 91 65 54 47 40 44 42
246 286 129 145 216 232 215 185 203 214 231 240 239 255 251 246 255 221 175 111 107 112 103 105 103 91 75 60 51 48 44 35 27 24 26 27 22 22 18 9 6 4 1 355 350 349 346 341 338 318 198 186 188 188 192 191 193 192 182 178 181 195 200 175 173 166 155 178 197 205 221 237 242 250 241 221 207 200 206 210 206 209 207 205 204 168 129 120 109 98 98 79 66 58 46 49 50
245 347 102 198 229 226 228 233 233 223 226 215 223 250 241 203 209 216 156 123 126 127 121 127 126 95 74 61 52 47 44 35 23 18 23 26 22 19 18 12 10 9 4 360 358 354 352 353 352 345 180 179 178 176 179 178 176 176 176 173 160 161 161 150 149 142 139 154 144 178 214 231 246 264 252 217 214 209 205 209 206 211 211 197 175 137 118 110 105 104 98 77 66 65 55 53 58
18 340 291 263 255 245 232 239 242 226 224 207 228 261 226 145 206 218 136 141 149 142 138 134 138 100 75 67 59 47 47 41 24 22 22 22 22 15 14 11 8 8 11 14 6 355 358 8 20 31 164 163 160 165 166 163 159 154 160 169 155 140 147 156 155 141 134 138 127 130 198 234 241 248 242 206 205 210 195 189 185 192 200 195 184 151 127 126 128 133 120 86 67 67 52 50 56
344 317 288 260 246 245 232 234 236 220 224 206 227 261 179 148 211 188 126 150 164 157 146 138 140 100 81 68 62 47 42 36 23 25 25 22 17 10 10 6 3 5 13 16 4 359 14 28 53 103 150 155 153 161 161 153 148 137 129 140 139 126 124 124 120 121 127 136 145 171 208 248 244 246 249 224 186 187 186 182 183 192 200 202 194 162 144 146 146 136 119 84 68 66 42 28 25
293 283 286 276 253 245 226 217 212 211 203 173 209 244 208 192 183 126 130 155 166 167 158 147 139 110 98 77 67 56 40 30 28 27 22 21 13 8 7 2 3 7 13 13 6 12 34 46 80 129 146 148 145 145 141 133 133 132 121 118 120 119 117 109 103 101 104 117 138 173 211 225 209 220 245 228 195 187 186 183 184 193 203 196 177 155 148 146 130 114 101 78 72 68 19 351 1
269 246 267 293 273 239 175 153 172 195 162 156 206 263 213 181 149 121 138 160 169 177 169 158 149 131 121 98 88 77 61 42 41 36 24 21 14 10 5 2 8 15 21 24 18 23 52 78 94 116 124 126 128 126 123 118 117 121 116 112 111 111 112 106 99 93 92 96 102 111 119 125 117 96 111 167 171 168 167 165 160 164 176 170 155 144 136 123 108 103 103 84 68 74 333 317 327
259 260 242 257 273 194 134 144 178 182 154 173 213 276 223 150 136 128 143 166 179 187 170 161 158 139 132 124 123 104 89 69 56 48 33 29 21 13 5 5 17 30 39 41 32 40 75 96 99 106 113 115 117 117 118 113 111 112 110 108 107 105 105 103 99 95 93 92 91 94 100 107 106 98 98 110 123 124 125 125 118 118 119 121 130 131 127 119 115 126 136 130 66 35 325 321 332
235 262 251 226 246 173 141 148 198 197 155 181 209 270 213 146 145 134 139 174 189 200 176 158 159 146 142 138 129 119 109 92 71 52 38 34 24 15 8 10 26 45 54 57 53 64 84 97 102 106 110 112 114 114 114 112 110 109 107 105 103 100 98 97 96 95 94 94 91 90 93 99 101 102 104 105 109 107 107 109 105 104 104 104 108 107 108 110 116 134 142 157 145 52 6 357 349
221 230 262 249 247 240 163 142 202 218 165 187 209 260 286 140 149 143 146 178 192 203 185 164 162 149 145 146 136 136 127 110 82 48 35 31 23 17 15 20 40 59 64 66 72 83 91 99 106 108 109 110 112 113 111 109 107 105 104 104 102 100 98 98 98 98 100 100 99 98 98 100 99 103 106 105 105 104 103 103 101 101 101 102 101 99 101 100 99 91 88 119 112 59 25 14 357
227 208 249 262 257 261 245 152 156 178 203 217 211 242 275 166 150 160 166 176 195 203 190 173 164 157 152 148 146 147 138 110 74 43 31 26 23 22 23 32 51 65 71 76 84 92 97 102 105 108 112 112 110 111 110 108 107 106 105 104 103 101 100 100 100 100 99 98 99 99 99 99 98 101 103 104 103 101 100 97 96 96 94 93 92 92 91 87 83 76 69 60 54 46 27 10 352
274 240 251 269 251 243 255 227 152 174 206 243 233 238 263 229 159 165 172 176 199 203 182 173 166 162 159 159 161 146 140 112 70 43 30 28 28 27 33 47 56 69 80 88 96 99 101 102 102 105 110 111 110 110 110 109 107 107 106 105 103 100 100 99 98 96 93 91 93 94 95 95 94 95 96 98 98 97 96 93 91 89 88 87 85 84 79 77 70 60 56 48 40 38 30 11 352
300 291 286 286 272 254 266 147 131 186 226 244 252 253 264 257 192 169 170 181 199 193 170 170 171 169 169 168 169 158 150 118 79 53 39 39 38 39 48 55 62 85 90 91 103 106 104 104 103 104 107 108 108 108 107 108 107 106 104 102 99 97 97 97 96 95 92 91 91 92 93 93 94 94 91 91 92 92 91 89 86 82 82 80 76 74 70 70 65 54 51 49 44 36 32 24 10
297 287 281 275 270 270 273 135 122 169 256 251 257 260 264 269 250 185 165 179 193 192 185 182 180 175 179 175 167 167 149 117 101 90 68 60 52 55 65 56 62 88 93 94 105 106 104 105 104 102 105 106 107 105 103 103 103 102 101 97 96 95 94 94 93 93 92 92 92 91 90 90 91 91 89 88 86 86 85 85 82 76 73 71 70 70 67 67 64 61 56 52 53 40 32 27 23
266 269 270 265 257 265 270 156 124 142 241 262 264 264 258 264 266 198 161 184 196 196 195 190 185 174 177 177 171 167 141 131 140 125 100 89 73 68 74 67 68 84 95 99 104 106 106 108 104 98 103 106 104 104 106 107 105 105 104 102 100 98 95 93 90 90 91 92 92 91 90 88 88 88 88 88 84 81 80 81 80 75 72 71 73 73 71 70 64 63 58 52 56 48 40 32 31
256 256 255 260 255 264 263 158 133 162 233 272 271 272 265 266 266 198 171 198 190 185 193 183 183 177 180 181 172 169 157 154 153 137 123 113 97 90 86 74 81 95 103 105 105 109 110 107 105 105 110 109 106 108 113 113 113 112 110 107 105 101 98 96 95 94 94 94 93 92 91 89 89 88 88 88 86 83 81 81 80 77 73 71 73 72 70 69 62 59 55 51 54 50 47 37 37
241 240 241 250 244 256 256 164 133 186 234 285 293 283 271 268 260 195 164 188 146 142 179 171 184 186 179 172 167 174 169 163 155 143 133 127 119 110 101 84 92 105 106 104 104 107 106 100 105 114 116 116 116 117 116 115 114 113 109 106 104 101 98 97 97 96 95 94 93 92 92 91 90 89 89 88 88 87 85 83 81 79 76 70 68 68 67 66 62 60 56 53 51 41 41 37 37
230 228 232 247 245 243 254 253 108 234 233 245 271 280 271 253 241 202 139 146 161 168 183 184 196 188 158 148 162 176 169 164 158 147 135 134 130 116 107 99 100 104 102 100 97 97 99 101 110 115 114 113 114 114 114 114 113 110 106 103 100 97 93 90 89 88 89 90 90 91 91 92 92 90 89 88 87 86 85 83 81 79 77 72 68 65 63 63 62 61 58 55 53 44 38 35 35
242 223 219 240 256 257 266 282 321 285 260 196 224 274 281 227 223 199 151 168 189 181 189 194 185 177 174 176 176 173 162 157 149 140 136 134 129 121 112 106 102 98 97 95 93 97 105 112 118 119 116 115 113 110 111 112 111 107 106 104 102 99 91 83 83 84 85 88 91 92 92 92 91 90 88 86 85 83 81 80 79 78 76 73 71 68 65 62 60 60 59 57 56 52 45 37 33
260 222 203 228 256 263 265 267 256 278 285 140 193 267 278 241 219 182 158 182 186 176 194 194 178 177 182 182 176 170 169 164 146 138 141 135 132 131 118 105 101 95 92 89 92 99 110 119 124 125 125 124 121 118 115 114 114 113 112 107 103 102 97 90 89 90 91 92 93 93 92 91 89 87 86 84 83 82 80 79 77 76 76 73 70 69 66 63 61 59 60 59 57 56 53 41 30
260 44 160 212 243 252 248 246 237 261 292 226 197 241 276 275 245 173 163 190 190 184 194 189 180 181 179 178 173 169 168 163 157 152 150 143 136 131 120 107 100 97 94 90 93 97 109 121 127 129 129 128 127 126 122 121 123 121 116 109 102 99 100 100 98 95 95 94 91 89 88 88 88 86 84 83 82 81 79 78 77 76 74 73 70 68 66 65 63 61 60 60 59 56 54 49 33
247 68 73 144 235 258 244 239 243 256 278 253 207 204 254 267 235 161 168 212 220 202 191 186 184 180 177 176 170 165 163 159 159 157 151 145 136 125 119 115 104 101 100 97 102 108 118 125 128 129 128 126 128 129 126 125 125 122 117 112 107 102 102 103 103 99 97 95 91 88 87 86 86 85 84 82 80 79 77 75 74 72 71 70 68 67 65 62 60 59 56 57 58 55 52 51 42
143 112 92 88 100 226 221 236 248 244 251 254 225 197 228 275 240 178 178 235 234 207 183 183 182 175 174 171 165 163 159 155 155 151 145 141 133 124 120 118 110 108 109 110 113 116 121 123 124 126 124 121 124 128 128 126 124 121 116 112 110 108 108 108 105 101 98 96 92 89 87 85 83 82 80 79 77 75 73 71 69 67 66 66 64 63 62 59 57 56 55 54 54 54 51 47 44
139 143 119 118 150 157 202 233 242 254 252 247 232 213 216 272 259 192 184 243 196 165 168 176 170 168 169 165 163 162 158 155 153 146 140 134 129 127 127 124 121 121 120 120 118 118 118 120 125 126 122 122 125 128 129 125 123 119 115 112 111 111 112 111 108 104 100 97 92 87 85 83 82 80 78 77 75 72 69 67 66 64 62 61 59 58 57 57 55 53 52 49 48 50 50 45 41
158 168 159 167 182 172 216 220 202 248 254 237 239 222 214 233 250 164 108 85 104 130 166 171 165 165 164 159 161 160 157 155 152 148 144 142 139 139 138 133 132 132 131 129 126 124 121 124 131 129 125 128 130 131 130 127 123 119 116 113 111 111 112 111 107 105 101 97 93 90 87 85 83 81 79 76 72 70 68 65 64 61 59 57 56 54 53 55 54 50 49 47 44 44 47 46 38
193 183 179 198 219 208 224 217 206 236 245 107 72 190 217 236 249 244 135 113 105 74 139 164 163 161 157 155 157 155 155 155 155 156 153 153 153 152 150 145 142 142 141 138 134 131 127 128 134 132 128 132 133 131 130 127 124 122 121 119 117 117 116 112 108 105 103 101 99 97 93 90 86 83 79 76 72 69 67 64 62 59 57 55 53 52 50 51 53 50 46 46 44 40 41 43 36
192 188 183 198 215 227 236 227 229 236 217 69 105 168 233 251 251 254 132 104 97 70 77 146 156 154 151 152 154 153 157 160 160 159 157 160 160 159 157 152 149 149 146 143 140 137 132 131 135 134 132 133 133 132 130 127 125 125 125 123 123 122 120 118 115 112 111 109 107 103 99 95 91 86 81 77 73 69 66 63 60 58 56 53 50 50 49 47 50 49 43 42 43 37 38 39 31
194 196 196 209 216 237 245 231 240 242 127 111 154 176 223 221 174 86 88 92 92 88 88 118 140 144 143 148 153 157 162 164 164 162 164 165 162 161 160 158 155 153 151 148 144 142 138 136 139 139 137 135 134 133 132 129 128 129 129 128 127 126 124 122 119 117 115 113 110 107 103 99 94 89 83 77 72 67 64 60 56 54 52 50 46 44 44 42 43 44 38 36 35 29 30 33 28
190 192 206 222 228 245 263 252 259 6 27 192 185 221 249 190 124 118 124 123 116 110 114 128 137 141 142 152 160 164 169 169 169 168 168 166 165 165 164 161 159 156 156 154 150 149 144 141 141 140 137 136 134 134 133 132 133 133 133 132 130 128 126 123 121 119 117 114 111 107 103 99 94 88 82 76 69 64 60 55 52 49 44 43 40 38 37 34 36 37 31 30 29 22 22 24 20
167 186 200 201 351 330 233 215 115 65 277 236 171 218 255 200 172 149 145 155 147 143 149 151 150 148 152 164 169 172 175 173 174 173 171 169 168 168 166 164 163 162 162 161 156 153 149 145 144 140 136 134 135 136 137 137 137 136 135 134 132 129 126 124 121 119 117 114 110 106 101 97 93 87 79 72 64 57 52 48 44 40 36 34 31 30 29 27 31 30 24 24 22 19 20 17 10
151 189 181 125 43 334 256 250 227 221 256 247 178 211 222 205 207 151 154 177 175 173 168 163 165 161 165 176 176 178 177 173 175 174 173 173 171 171 170 167 167 167 166 163 158 155 152 150 148 144 141 140 141 142 141 141 140 138 136 135 133 130 127 124 122 120 117 113 108 103 99 93 88 79 68 59 51 44 39 35 32 28 25 23 20 20 19 20 25 24 20 18 15 13 15 13 4
157 235 163 136 212 216 198 226 246 234 243 251 210 213 220 217 205 157 178 195 186 178 173 174 178 175 177 181 179 180 176 173 177 178 178 177 175 174 171 169 169 169 167 163 159 156 154 152 150 147 146 146 147 147 145 145 144 141 139 137 134 131 128 125 122 119 113 109 106 102 97 90 81 73 62 54 46 39 33 28 25 21 16 14 12 12 12 13 17 18 17 13 8 6 8 9 3
335 263 190 176 248 221 200 209 234 240 240 252 233 206 218 223 203 181 192 195 179 171 174 186 190 185 183 180 179 181 181 181 183 183 182 178 176 175 171 170 170 168 167 165 161 159 156 154 152 149 149 151 152 151 150 149 147 144 141 139 136 132 129 125 120 117 113 111 109 104 98 92 88 82 73 66 56 46 38 30 24 18 13 10 7 7 8 9 10 11 11 7 3 3 5 4 358
181 197 192 188 186 197 258 231 224 246 244 247 254 252 229 192 194 191 189 182 172 171 179 188 189 187 186 184 184 184 185 187 184 182 180 176 173 172 170 171 168 167 167 166 164 162 159 157 155 154 155 156 156 155 154 153 149 147 144 141 138 134 130 126 123 120 118 116 114 112 110 109 109 104 96 88 78 63 48 36 27 17 10 7 5 4 4 5 7 5 2 1 1 1 1 358 353
191 196 196 192 185 175 209 219 199 218 252 247 264 271 253 105 41 35 67 85 140 161 175 180 182 186 187 190 190 188 188 187 183 178 174 170 169 168 168 168 166 168 168 167 167 166 163 161 159 160 160 160 160 159 158 156 152 149 147 143 140 137 133 130 128 126 125 126 128 130 129 126 123 119 112 101 87 69 51 38 26 14 8 3 2 2 1 1 2 1 357 356 356 356 355 351 348